Time,TemperatureF,DewpointF,PressureIn,WindDirection,WindDirectionDegrees,WindSpeedMPH,WindSpeedGustMPH,Humidity,HourlyPrecipIn,Conditions,Clouds,dailyrainin,SoftwareType,DateUTC
2013-06-18 00:00:00,62.3,60.0,29.87,South,181,0.0,1.0,93,0.00,,,0.00,weatherlink.com 1.10,2013-06-18 07:00:00,
2013-06-18 00:15:00,62.2,60.0,29.87,South,181,0.0,2.0,93,0.00,,,0.00,weatherlink.com 1.10,2013-06-18 07:15:00,
2013-06-18 00:30:00,61.8,60.0,29.87,South,181,0.0,0.0,93,0.00,,,0.00,weatherlink.com 1.10,2013-06-18 07:30:00,
2013-06-18 00:45:00,61.4,59.0,29.86,South,181,0.0,1.0,93,0.00,,,0.00,weatherlink.com 1.10,2013-06-18 07:45:00,
2013-06-18 01:00:00,60.8,59.0,29.86,South,181,0.0,0.0,93,0.00,,,0.00,weatherlink.com 1.10,2013-06-18 08:00:00,
2013-06-18 01:15:00,60.3,58.0,29.86,South,181,0.0,0.0,93,0.00,,,0.00,weatherlink.com 1.10,2013-06-18 08:15:00,
2013-06-18 01:30:00,60.7,59.0,29.86,South,181,0.0,1.0,95,0.00,,,0.00,weatherlink.com 1.10,2013-06-18 08:30:00,
2013-06-18 01:45:00,60.9,60.0,29.86,South,181,0.0,1.0,95,0.00,,,0.00,weatherlink.com 1.10,2013-06-18 08:45:00,
2013-06-18 02:00:00,60.9,60.0,29.86,South,181,0.0,0.0,95,0.00,,,0.00,weatherlink.com 1.10,2013-06-18 09:00:00,
2013-06-18 02:15:00,60.8,59.0,29.86,South,181,0.0,2.0,95,0.00,,,0.00,weatherlink.com 1.10,2013-06-18 09:15:00,
2013-06-18 02:30:00,60.7,59.0,29.85,South,179,0.0,1.0,95,0.00,,,0.00,weatherlink.com 1.10,2013-06-18 09:30:00,
2013-06-18 02:45:00,60.4,59.0,29.85,South,179,0.0,0.0,95,0.00,,,0.00,weatherlink.com 1.10,2013-06-18 09:45:00,
2013-06-18 03:00:00,59.9,59.0,29.85,South,179,0.0,0.0,95,0.00,,,0.00,weatherlink.com 1.10,2013-06-18 10:00:00,
2013-06-18 03:15:00,59.3,58.0,29.85,South,179,0.0,0.0,94,0.00,,,0.00,weatherlink.com 1.10,2013-06-18 10:15:00,
2013-06-18 03:30:00,58.6,57.0,29.85,South,179,0.0,0.0,94,0.00,,,0.00,weatherlink.com 1.10,2013-06-18 10:30:00,
2013-06-18 03:46:00,58.0,56.0,29.85,South,179,0.0,0.0,94,0.00,,,0.00,weatherlink.com 1.10,2013-06-18 10:46:00,
2013-06-18 04:00:00,57.6,56.2,29.85,South,180,0.0,0.0,95,0.00,,---,0.00,VWS V14.01,2013-06-18 11:00:00,
2013-06-18 04:01:00,57.5,56.0,29.85,South,179,0.0,0.0,95,0.00,,,0.00,weatherlink.com 1.10,2013-06-18 11:01:00,
2013-06-18 04:15:00,57.2,55.8,29.85,South,180,0.0,0.0,95,0.00,,---,0.00,VWS V14.01,2013-06-18 11:15:00,
2013-06-18 04:16:00,57.1,56.0,29.85,South,179,0.0,0.0,95,0.00,,,0.00,weatherlink.com 1.10,2013-06-18 11:16:00,
2013-06-18 04:30:00,57.2,56.1,29.85,South,180,0.0,1.0,96,0.00,,---,0.00,VWS V14.01,2013-06-18 11:30:00,
2013-06-18 04:31:00,57.3,56.0,29.85,South,179,0.0,0.0,96,0.00,,,0.00,weatherlink.com 1.10,2013-06-18 11:31:00,
2013-06-18 04:46:00,58.0,57.0,29.85,South,179,0.0,0.0,97,0.00,,,0.00,weatherlink.com 1.10,2013-06-18 11:46:00,
2013-06-18 05:01:00,57.7,57.0,29.85,South,179,0.0,0.0,96,0.00,,,0.00,weatherlink.com 1.10,2013-06-18 12:01:00,
2013-06-18 05:16:00,57.8,57.0,29.86,South,179,0.0,0.0,97,0.00,,,0.00,weatherlink.com 1.10,2013-06-18 12:16:00,
2013-06-18 05:31:00,57.8,57.0,29.86,South,179,0.0,0.0,97,0.00,,,0.00,weatherlink.com 1.10,2013-06-18 12:31:00,
2013-06-18 05:46:00,58.4,58.0,29.87,South,179,0.0,1.0,97,0.00,,,0.00,weatherlink.com 1.10,2013-06-18 12:46:00,
2013-06-18 06:00:00,59.6,59.0,29.87,South,180,0.0,1.0,98,0.00,,---,0.00,VWS V14.01,2013-06-18 13:00:00,
2013-06-18 06:01:00,59.8,59.0,29.87,South,179,0.0,1.0,98,0.00,,,0.00,weatherlink.com 1.10,2013-06-18 13:01:00,
2013-06-18 06:16:00,60.5,60.0,29.87,South,179,0.0,3.0,98,0.00,,,0.00,weatherlink.com 1.10,2013-06-18 13:16:00,
2013-06-18 06:31:00,60.8,60.0,29.88,South,179,0.0,1.0,98,0.00,,,0.00,weatherlink.com 1.10,2013-06-18 13:31:00,
2013-06-18 06:46:00,61.1,60.0,29.88,South,178,0.0,1.0,97,0.00,,,0.00,weatherlink.com 1.10,2013-06-18 13:46:00,
2013-06-18 07:01:00,61.2,60.0,29.88,South,178,1.0,2.0,97,0.00,,,0.00,weatherlink.com 1.10,2013-06-18 14:01:00,
2013-06-18 07:16:00,61.4,61.0,29.89,South,178,0.0,2.0,97,0.00,,,0.00,weatherlink.com 1.10,2013-06-18 14:16:00,
2013-06-18 07:30:00,61.5,60.3,29.89,ENE,68,0.0,2.0,96,0.00,,---,0.00,VWS V14.01,2013-06-18 14:30:00,
2013-06-18 07:31:00,61.6,61.0,29.89,ENE,69,0.0,2.0,96,0.00,,,0.00,weatherlink.com 1.10,2013-06-18 14:31:00,
2013-06-18 07:45:00,61.8,60.7,29.89,ENE,68,0.0,1.0,96,0.00,,---,0.00,VWS V14.01,2013-06-18 14:45:00,
2013-06-18 07:46:00,61.8,61.0,29.89,ENE,69,0.0,0.0,96,0.00,,,0.00,weatherlink.com 1.10,2013-06-18 14:46:00,
2013-06-18 08:00:00,62.2,60.8,29.89,East,90,0.0,4.0,95,0.00,,---,0.00,VWS V14.01,2013-06-18 15:00:00,
2013-06-18 08:01:00,62.3,61.0,29.89,ESE,110,0.0,4.0,94,0.00,,,0.00,weatherlink.com 1.10,2013-06-18 15:01:00,
2013-06-18 08:15:00,62.7,60.7,29.90,ESE,112,1.0,4.0,93,0.00,,---,0.00,VWS V14.01,2013-06-18 15:15:00,
2013-06-18 08:16:00,62.8,61.0,29.90,ESE,112,0.0,3.0,93,0.00,,,0.00,weatherlink.com 1.10,2013-06-18 15:16:00,
2013-06-18 08:31:00,63.5,61.0,29.90,ESE,112,0.0,1.0,90,0.00,,,0.00,weatherlink.com 1.10,2013-06-18 15:31:00,
2013-06-18 08:46:00,64.5,61.0,29.90,ESE,109,0.0,3.0,89,0.00,,,0.00,weatherlink.com 1.10,2013-06-18 15:46:00,
2013-06-18 09:01:00,65.4,61.0,29.90,South,189,2.0,5.0,86,0.00,,,0.00,weatherlink.com 1.10,2013-06-18 16:01:00,
2013-06-18 09:16:00,66.5,62.0,29.90,SSE,159,1.0,4.0,84,0.00,,,0.00,weatherlink.com 1.10,2013-06-18 16:16:00,
2013-06-18 09:31:00,68.0,62.0,29.90,South,190,2.0,4.0,81,0.00,,,0.00,weatherlink.com 1.10,2013-06-18 16:31:00,
2013-06-18 09:46:00,68.1,62.0,29.90,ESE,120,1.0,3.0,80,0.00,,,0.00,weatherlink.com 1.10,2013-06-18 16:46:00,
2013-06-18 10:00:00,70.0,62.8,29.90,SSW,202,1.0,6.0,78,0.00,,---,0.00,VWS V14.01,2013-06-18 17:00:00,
2013-06-18 10:01:00,70.4,63.0,29.90,SSE,159,0.0,7.0,77,0.00,,,0.00,weatherlink.com 1.10,2013-06-18 17:01:00,
2013-06-18 10:16:00,71.5,63.0,29.90,SE,126,0.0,5.0,74,0.00,,,0.00,weatherlink.com 1.10,2013-06-18 17:16:00,
2013-06-18 10:31:00,72.0,63.0,29.89,SSW,192,4.0,9.0,73,0.00,,,0.00,weatherlink.com 1.10,2013-06-18 17:31:00,
2013-06-18 10:45:00,72.2,62.3,29.90,SSW,202,3.0,7.0,71,0.00,,---,0.00,VWS V14.01,2013-06-18 17:45:00,
2013-06-18 10:46:00,72.2,63.0,29.90,SSW,192,4.0,8.0,73,0.00,,,0.00,weatherlink.com 1.10,2013-06-18 17:46:00,
2013-06-18 11:01:00,72.6,63.0,29.90,SSW,205,0.0,9.0,71,0.00,,,0.00,weatherlink.com 1.10,2013-06-18 18:01:00,
2013-06-18 11:15:00,73.0,62.7,29.90,South,180,3.0,9.0,70,0.00,,---,0.00,VWS V14.01,2013-06-18 18:15:00,
2013-06-18 11:16:00,73.0,63.0,29.90,South,182,6.0,7.0,70,0.00,,,0.00,weatherlink.com 1.10,2013-06-18 18:16:00,
2013-06-18 11:30:00,72.9,63.0,29.90,South,180,4.0,10.0,71,0.00,,---,0.00,VWS V14.01,2013-06-18 18:30:00,
2013-06-18 11:31:00,73.2,63.0,29.90,SSE,148,1.0,7.0,71,0.00,,,0.00,weatherlink.com 1.10,2013-06-18 18:31:00,
2013-06-18 11:45:00,73.5,62.7,29.90,South,180,3.0,9.0,69,0.00,,---,0.00,VWS V14.01,2013-06-18 18:45:00,
2013-06-18 11:46:00,73.5,63.0,29.90,WSW,241,2.0,9.0,70,0.00,,,0.00,weatherlink.com 1.10,2013-06-18 18:46:00,
2013-06-18 12:01:00,73.0,63.0,29.89,SSW,207,4.0,13.0,70,0.00,,,0.00,weatherlink.com 1.10,2013-06-18 19:01:00,
2013-06-18 12:16:00,72.8,63.0,29.89,South,169,2.0,12.0,72,0.00,,,0.00,weatherlink.com 1.10,2013-06-18 19:16:00,
2013-06-18 12:31:00,72.9,63.0,29.89,SSW,212,3.0,8.0,71,0.00,,,0.00,weatherlink.com 1.10,2013-06-18 19:31:00,
2013-06-18 12:46:00,73.2,63.0,29.88,SSW,203,5.0,9.0,71,0.00,,,0.00,weatherlink.com 1.10,2013-06-18 19:46:00,
2013-06-18 13:01:00,73.9,64.0,29.88,SSW,198,6.0,9.0,70,0.00,,,0.00,weatherlink.com 1.10,2013-06-18 20:01:00,
2013-06-18 13:16:00,73.9,63.0,29.88,SW,226,3.0,14.0,69,0.00,,,0.00,weatherlink.com 1.10,2013-06-18 20:16:00,
2013-06-18 13:31:00,74.2,63.0,29.88,South,190,1.0,9.0,69,0.00,,,0.00,weatherlink.com 1.10,2013-06-18 20:31:00,
2013-06-18 13:46:00,74.0,63.0,29.88,SSW,197,1.0,8.0,69,0.00,,,0.00,weatherlink.com 1.10,2013-06-18 20:46:00,
2013-06-18 14:01:00,74.3,63.0,29.87,SSW,210,4.0,9.0,68,0.00,,,0.00,weatherlink.com 1.10,2013-06-18 21:01:00,
2013-06-18 14:15:00,74.4,63.6,29.87,South,180,4.0,10.0,69,0.00,,---,0.00,VWS V14.01,2013-06-18 21:15:00,
2013-06-18 14:17:00,74.4,63.0,29.87,SW,214,4.0,10.0,68,0.00,,,0.00,weatherlink.com 1.10,2013-06-18 21:17:00,
2013-06-18 14:30:00,74.6,63.8,29.87,South,180,4.0,11.0,69,0.00,,---,0.00,VWS V14.01,2013-06-18 21:30:00,
2013-06-18 14:32:00,74.7,63.0,29.87,South,191,4.0,11.0,68,0.00,,,0.00,weatherlink.com 1.10,2013-06-18 21:32:00,
2013-06-18 14:47:00,74.7,63.0,29.87,SW,227,2.0,11.0,68,0.00,,,0.00,weatherlink.com 1.10,2013-06-18 21:47:00,
2013-06-18 15:00:00,74.0,63.2,29.86,SSW,202,5.0,12.0,69,0.00,,---,0.00,VWS V14.01,2013-06-18 22:00:00,
2013-06-18 15:02:00,73.8,63.0,29.86,South,188,4.0,12.0,70,0.00,,,0.00,weatherlink.com 1.10,2013-06-18 22:02:00,
2013-06-18 15:15:00,74.2,64.2,29.86,SSW,202,4.0,11.0,71,0.00,,---,0.00,VWS V14.01,2013-06-18 22:15:00,
2013-06-18 15:17:00,74.3,64.0,29.86,SSW,200,7.0,11.0,70,0.00,,,0.00,weatherlink.com 1.10,2013-06-18 22:17:00,
2013-06-18 15:30:00,73.9,63.9,29.86,SSW,202,4.0,11.0,71,0.00,,---,0.00,VWS V14.01,2013-06-18 22:30:00,
2013-06-18 15:32:00,73.9,64.0,29.86,South,181,5.0,9.0,70,0.00,,,0.00,weatherlink.com 1.10,2013-06-18 22:32:00,
2013-06-18 15:45:00,74.2,64.2,29.85,SSW,202,4.0,10.0,71,0.00,,---,0.00,VWS V14.01,2013-06-18 22:45:00,
2013-06-18 15:47:00,74.4,64.0,29.85,South,180,4.0,11.0,71,0.00,,,0.00,weatherlink.com 1.10,2013-06-18 22:47:00,
2013-06-18 16:02:00,74.7,64.0,29.84,SSW,203,4.0,11.0,70,0.00,,,0.00,weatherlink.com 1.10,2013-06-18 23:02:00,
2013-06-18 16:15:00,74.6,64.2,29.84,SSW,202,5.0,11.0,70,0.00,,---,0.00,VWS V14.01,2013-06-18 23:15:00,
2013-06-18 16:17:00,74.4,64.0,29.84,SSW,200,5.0,11.0,71,0.00,,,0.00,weatherlink.com 1.10,2013-06-18 23:17:00,
2013-06-18 16:32:00,74.3,64.0,29.84,SSW,202,3.0,11.0,71,0.00,,,0.00,weatherlink.com 1.10,2013-06-18 23:32:00,
2013-06-18 16:37:00,74.6,64.2,29.84,SSW,202,5.0,11.0,70,0.00,,---,0.00,VWS V14.01,2013-06-18 23:37:00,
2013-06-18 16:42:00,74.5,64.1,29.83,South,190,3.0,11.0,70,0.00,,---,0.00,VWS V14.01,2013-06-18 23:42:00,
2013-06-18 16:47:00,74.6,64.2,29.83,SSW,194,3.0,7.0,70,0.00,,---,0.00,VWS V14.01,2013-06-18 23:47:00,
2013-06-18 16:52:00,74.2,63.8,29.83,South,169,3.0,10.0,70,0.00,,---,0.00,VWS V14.01,2013-06-18 23:52:00,
2013-06-18 16:57:00,73.9,63.9,29.83,SW,221,1.0,10.0,71,0.00,,---,0.00,VWS V14.01,2013-06-18 23:57:00,
2013-06-18 17:02:00,73.7,63.7,29.83,South,174,2.0,9.0,71,0.00,,---,0.00,VWS V14.01,2013-06-19 00:02:00,
2013-06-18 17:07:00,73.5,63.9,29.83,SW,218,2.0,9.0,72,0.00,,---,0.00,VWS V14.01,2013-06-19 00:07:00,
2013-06-18 17:12:00,73.4,63.8,29.83,SW,221,4.0,9.0,72,0.00,,---,0.00,VWS V14.01,2013-06-19 00:12:00,
2013-06-18 17:17:00,73.2,64.0,29.83,SSW,205,7.0,7.0,73,0.00,,---,0.00,VWS V14.01,2013-06-19 00:17:00,
2013-06-18 17:30:00,73.1,63.5,29.82,SSW,202,5.0,12.0,72,0.00,,---,0.00,VWS V14.01,2013-06-19 00:30:00,
2013-06-18 17:36:00,73.0,63.0,29.82,South,177,6.0,10.0,72,0.00,,,0.00,weatherlink.com 1.10,2013-06-19 00:36:00,
2013-06-18 17:45:00,73.0,63.5,29.82,SSW,202,4.0,10.0,72,0.00,,---,0.00,VWS V14.01,2013-06-19 00:45:00,
2013-06-18 17:51:00,72.7,64.0,29.82,SSW,207,2.0,11.0,73,0.00,,,0.00,weatherlink.com 1.10,2013-06-19 00:51:00,
2013-06-18 18:00:00,72.3,63.9,29.82,SSW,202,5.0,11.0,75,0.00,,---,0.00,VWS V14.01,2013-06-19 01:00:00,
2013-06-18 18:15:00,71.6,63.6,29.82,SSW,202,5.0,11.0,76,0.00,,---,0.00,VWS V14.01,2013-06-19 01:15:00,
2013-06-18 18:21:00,71.3,64.0,29.82,SSE,166,5.0,9.0,77,0.00,,,0.00,weatherlink.com 1.10,2013-06-19 01:21:00,
2013-06-18 18:30:00,71.1,63.5,29.82,SSW,202,5.0,12.0,77,0.00,,---,0.00,VWS V14.01,2013-06-19 01:30:00,
2013-06-18 18:36:00,70.6,63.0,29.82,South,173,7.0,11.0,78,0.00,,,0.00,weatherlink.com 1.10,2013-06-19 01:36:00,
2013-06-18 18:45:00,70.0,63.2,29.82,SSW,202,5.0,11.0,79,0.00,,---,0.00,VWS V14.01,2013-06-19 01:45:00,
2013-06-18 18:51:00,69.6,63.0,29.82,South,175,1.0,10.0,80,0.00,,,0.00,weatherlink.com 1.10,2013-06-19 01:51:00,
2013-06-18 19:00:00,69.3,62.9,29.82,SSW,202,5.0,10.0,80,0.00,,---,0.00,VWS V14.01,2013-06-19 02:00:00,
2013-06-18 19:06:00,68.9,63.0,29.82,South,173,4.0,9.0,81,0.00,,,0.00,weatherlink.com 1.10,2013-06-19 02:06:00,
2013-06-18 19:15:00,68.4,62.3,29.83,SSW,202,4.0,10.0,81,0.00,,---,0.00,VWS V14.01,2013-06-19 02:15:00,
2013-06-18 19:21:00,67.6,62.0,29.82,SSW,194,5.0,10.0,83,0.00,,,0.00,weatherlink.com 1.10,2013-06-19 02:21:00,
2013-06-18 19:30:00,67.1,61.8,29.82,SSW,202,5.0,10.0,83,0.00,,---,0.00,VWS V14.01,2013-06-19 02:30:00,
2013-06-18 19:36:00,66.5,62.0,29.82,SSW,200,1.0,7.0,84,0.00,,,0.00,weatherlink.com 1.10,2013-06-19 02:36:00,
2013-06-18 19:45:00,66.1,61.5,29.82,SSW,202,3.0,7.0,85,0.00,,---,0.00,VWS V14.01,2013-06-19 02:45:00,
2013-06-18 19:51:00,65.8,62.0,29.82,SW,234,4.0,7.0,86,0.00,,,0.00,weatherlink.com 1.10,2013-06-19 02:51:00,
2013-06-18 20:00:00,65.6,61.6,29.82,SSW,202,2.0,7.0,87,0.00,,---,0.00,VWS V14.01,2013-06-19 03:00:00,
2013-06-18 20:06:00,65.3,61.0,29.82,SSW,202,4.0,7.0,87,0.00,,,0.00,weatherlink.com 1.10,2013-06-19 03:06:00,
2013-06-18 20:15:00,65.0,61.4,29.82,SSW,202,2.0,7.0,88,0.00,,---,0.00,VWS V14.01,2013-06-19 03:15:00,
2013-06-18 20:21:00,64.8,61.0,29.82,South,191,2.0,7.0,88,0.00,,,0.00,weatherlink.com 1.10,2013-06-19 03:21:00,
2013-06-18 20:30:00,64.7,61.4,29.82,SSW,202,3.0,7.0,89,0.00,,---,0.00,VWS V14.01,2013-06-19 03:30:00,
2013-06-18 20:36:00,64.5,61.0,29.82,SSW,198,0.0,5.0,89,0.00,,,0.00,weatherlink.com 1.10,2013-06-19 03:36:00,
2013-06-18 20:45:00,64.5,61.2,29.82,SSW,202,1.0,5.0,89,0.00,,---,0.00,VWS V14.01,2013-06-19 03:45:00,
2013-06-18 20:51:00,64.3,61.0,29.82,SSW,199,0.0,6.0,89,0.00,,,0.00,weatherlink.com 1.10,2013-06-19 03:51:00,
2013-06-18 21:00:00,64.3,61.3,29.82,South,180,2.0,6.0,90,0.00,,---,0.00,VWS V14.01,2013-06-19 04:00:00,
2013-06-18 21:06:00,64.2,61.0,29.83,South,187,0.0,4.0,90,0.00,,,0.00,weatherlink.com 1.10,2013-06-19 04:06:00,
2013-06-18 21:15:00,64.1,61.1,29.83,South,180,1.0,4.0,90,0.00,,---,0.00,VWS V14.01,2013-06-19 04:15:00,
2013-06-18 21:21:00,64.0,61.0,29.83,South,180,4.0,5.0,90,0.00,,,0.00,weatherlink.com 1.10,2013-06-19 04:21:00,
2013-06-18 21:30:00,63.8,60.8,29.83,SSW,202,2.0,6.0,90,0.00,,---,0.00,VWS V14.01,2013-06-19 04:30:00,
2013-06-18 21:36:00,63.7,61.0,29.83,South,170,0.0,5.0,90,0.00,,,0.00,weatherlink.com 1.10,2013-06-19 04:36:00,
2013-06-18 21:45:00,63.5,60.5,29.83,South,180,1.0,5.0,90,0.00,,---,0.00,VWS V14.01,2013-06-19 04:45:00,
2013-06-18 21:51:00,63.4,61.0,29.84,SSW,197,0.0,4.0,90,0.00,,,0.00,weatherlink.com 1.10,2013-06-19 04:51:00,
2013-06-18 22:00:00,63.2,60.2,29.84,SSW,202,1.0,4.0,90,0.00,,---,0.00,VWS V14.01,2013-06-19 05:00:00,
2013-06-18 22:06:00,63.1,60.0,29.84,South,190,1.0,3.0,90,0.00,,,0.00,weatherlink.com 1.10,2013-06-19 05:06:00,
2013-06-18 22:15:00,63.0,60.0,29.84,South,180,0.0,3.0,90,0.00,,---,0.00,VWS V14.01,2013-06-19 05:15:00,
2013-06-18 22:21:00,62.9,60.0,29.84,SSW,200,5.0,5.0,91,0.00,,,0.00,weatherlink.com 1.10,2013-06-19 05:21:00,
2013-06-18 22:30:00,62.9,60.2,29.84,SSW,202,1.0,5.0,91,0.00,,---,0.00,VWS V14.01,2013-06-19 05:30:00,
2013-06-18 22:36:00,62.8,60.0,29.84,SSW,196,0.0,3.0,91,0.00,,,0.00,weatherlink.com 1.10,2013-06-19 05:36:00,
2013-06-18 22:45:00,62.8,60.1,29.84,SSW,202,1.0,3.0,91,0.00,,---,0.00,VWS V14.01,2013-06-19 05:45:00,
2013-06-18 22:51:00,62.7,60.0,29.84,SSW,196,1.0,3.0,91,0.00,,,0.00,weatherlink.com 1.10,2013-06-19 05:51:00,
2013-06-18 23:00:00,62.7,60.0,29.84,SSW,202,1.0,3.0,91,0.00,,---,0.00,VWS V14.01,2013-06-19 06:00:00,
2013-06-18 23:06:00,62.6,60.0,29.84,SSW,196,0.0,2.0,91,0.00,,,0.00,weatherlink.com 1.10,2013-06-19 06:06:00,
2013-06-18 23:15:00,62.6,60.2,29.84,SSW,202,0.0,3.0,92,0.00,,---,0.00,VWS V14.01,2013-06-19 06:15:00,
2013-06-18 23:21:00,62.5,60.0,29.83,South,186,0.0,3.0,92,0.00,,,0.00,weatherlink.com 1.10,2013-06-19 06:21:00,
2013-06-18 23:30:00,62.4,60.0,29.83,South,180,0.0,3.0,92,0.00,,---,0.00,VWS V14.01,2013-06-19 06:30:00,
2013-06-18 23:36:00,62.3,60.0,29.83,South,186,1.0,3.0,92,0.00,,,0.00,weatherlink.com 1.10,2013-06-19 06:36:00,
2013-06-18 23:45:00,62.3,60.0,29.83,South,180,0.0,4.0,92,0.00,,---,0.00,VWS V14.01,2013-06-19 06:45:00,
2013-06-18 23:51:00,62.2,60.0,29.83,SW,217,0.0,2.0,92,0.00,,,0.00,weatherlink.com 1.10,2013-06-19 06:51:00,